TimeCDT,TemperatureF,Dew PointF,Humidity,Sea Level PressureIn,VisibilityMPH,Wind Direction,Wind SpeedMPH,Gust SpeedMPH,PrecipitationIn,Events,Conditions,WindDirDegrees,DateUTC
12:53 AM,54.0,51.1,90,30.05,10.0,NNW,8.1,-,N/A,,Clear,340,2013-08-09 05:53:00
1:53 AM,53.1,48.9,86,30.05,10.0,NNW,5.8,-,N/A,,Clear,340,2013-08-09 06:53:00
2:53 AM,51.1,46.0,83,30.06,10.0,West,4.6,-,N/A,,Clear,280,2013-08-09 07:53:00
3:53 AM,52.0,46.0,80,30.06,10.0,WNW,4.6,-,N/A,,Clear,300,2013-08-09 08:53:00
4:53 AM,48.9,44.1,83,30.06,10.0,West,4.6,-,N/A,,Clear,270,2013-08-09 09:53:00
5:53 AM,48.9,44.1,83,30.06,10.0,West,6.9,-,N/A,,Clear,260,2013-08-09 10:53:00
6:53 AM,48.9,45.0,86,30.08,10.0,West,4.6,-,N/A,,Clear,280,2013-08-09 11:53:00
7:53 AM,55.0,48.0,77,30.09,10.0,WNW,10.4,-,N/A,,Clear,290,2013-08-09 12:53:00
8:53 AM,60.1,48.9,67,30.09,10.0,NW,13.8,-,N/A,,Clear,310,2013-08-09 13:53:00
9:53 AM,64.9,48.9,56,30.09,10.0,NW,12.7,21.9,N/A,,Clear,320,2013-08-09 14:53:00
10:53 AM,66.9,46.9,49,30.10,10.0,NNW,16.1,-,N/A,,Clear,330,2013-08-09 15:53:00
11:53 AM,69.1,46.9,45,30.11,10.0,NW,19.6,24.2,N/A,,Mostly Cloudy,320,2013-08-09 16:53:00
12:53 PM,69.1,48.0,47,30.11,10.0,NW,11.5,-,N/A,,Overcast,310,2013-08-09 17:53:00
1:53 PM,68.0,48.9,50,30.11,10.0,WNW,12.7,-,N/A,,Overcast,300,2013-08-09 18:53:00
2:53 PM,70.0,48.0,46,30.10,10.0,WNW,15.0,-,N/A,,Overcast,300,2013-08-09 19:53:00
3:53 PM,70.0,48.9,47,30.09,10.0,WNW,11.5,21.9,N/A,,Overcast,300,2013-08-09 20:53:00
4:53 PM,69.1,48.9,49,30.11,10.0,NW,13.8,-,N/A,,Overcast,320,2013-08-09 21:53:00
5:53 PM,68.0,48.9,50,30.11,10.0,NNW,10.4,-,N/A,,Overcast,330,2013-08-09 22:53:00
6:53 PM,68.0,50.0,52,30.11,10.0,NNW,10.4,-,N/A,,Overcast,330,2013-08-09 23:53:00
7:53 PM,66.9,50.0,54,30.12,10.0,NW,9.2,-,N/A,,Overcast,310,2013-08-10 00:53:00
8:53 PM,64.0,51.1,63,30.13,10.0,NNW,4.6,-,N/A,,Overcast,340,2013-08-10 01:53:00
9:53 PM,63.0,53.1,70,30.14,10.0,NNW,3.5,-,N/A,,Overcast,340,2013-08-10 02:53:00
10:53 PM,63.0,53.1,70,30.15,9.0,Calm,Calm,-,N/A,,Overcast,0,2013-08-10 03:53:00
11:53 PM,62.1,53.1,72,30.16,10.0,WNW,3.5,-,N/A,,Overcast,290,2013-08-10 04:53:00